EHI
0 0 1 2 2 1 0 0 0 0 0 0 0 0 0 0 0 0 0 0 0 0 0 0 0 0 0 0 0 0 0 0 0 0 0 0 0 0 0 0 0 0 0
0 0 1 2 2 1 0 0 0 0 0 0 0 0 0 0 0 0 0 0 0 0 0 0 0 0 0 0 0 0 0 0 0 0 0 0 0 0 0 0 0 0 0
0 0 0 1 1 0 0 0 0 0 0 0 0 0 0 0 0 0 0 0 0 0 0 0 0 0 0 0 0 0 0 0 0 0 0 0 0 0 0 0 0 0 0
0 0 0 0 0 0 0 0 0 0 0 0 0 0 0 0 0 0 0 0 0 0 0 0 0 0 0 0 0 0 0 0 0 0 0 0 0 0 0 0 0 0 0
0 0 0 0 0 0 0 0 0 0 0 0 0 0 0 0 0 0 0 0 0 0 0 0 0 0 0 0 0 0 0 0 0 0 0 0 0 0 0 0 0 0 0
0 0 0 0 0 0 0 0 0 0 0 0 0 0 0 0 0 0 0 0 0 0 0 0 0 0 0 0 0 0 0 0 0 0 0 0 0 0 0 0 0 0 0
0 0 0 0 0 0 0 0 0 0 0 0 0 0 0 0 0 0 0 0 0 0 0 0 0 0 0 0 0 0 0 0 0 0 0 0 0 0 0 0 0 0 0
0 0 0 0 0 0 0 0 0 0 0 0 0 0 0 0 0 0 0 0 0 0 0 0 0 0 0 0 0 0 0 0 0 0 0 0 0 0 0 0 0 0 0
0 0 0 0 0 0 0 0 0 0 0 0 0 0 0 0 0 0 0 0 0 0 0 0 0 0 0 0 0 0 0 0 0 0 0 0 0 0 0 0 0 0 0
0 0 0 0 0 0 0 0 0 0 0 0 0 0 0 0 0 0 0 0 0 0 0 0 0 0 0 0 0 0 0 0 0 0 0 0 0 0 0 0 0 0 0
0 0 0 0 0 0 0 0 0 0 0 0 0 0 0 0 0 0 0 0 0 0 0 0 0 0 0 0 0 0 0 0 0 0 0 0 0 0 0 0 0 0 0
0 0 0 0 0 0 0 0 0 0 0 0 0 0 0 0 0 0 0 0 0 0 0 0 0 0 0 0 0 0 0 0 0 0 0 0 0 0 0 0 0 0 0
0 0 0 0 0 0 0 0 0 0 0 0 0 0 0 0 0 0 0 0 0 0 0 0 0 0 0 0 0 0 0 0 0 0 0 0 0 0 0 0 0 0 0
0 0 0 0 0 0 0 0 0 0 0 0 0 0 0 0 0 0 0 0 0 0 0 0 0 0 0 0 0 0 0 0 0 0 0 0 0 0 0 0 0 0 0
0 0 0 0 0 0 0 0 0 0 0 0 0 0 0 0 0 0 0 0 0 0 0 0 0 0 0 0 0 0 0 0 0 0 0 0 0 0 0 0 0 0 0
0 0 0 0 0 0 0 0 0 0 0 0 0 0 0 0 0 0 0 0 0 0 0 0 0 0 0 0 0 0 0 0 0 0 0 0 0 0 0 0 0 0 0
0 0 0 0 0 0 0 0 0 0 0 0 0 0 0 0 0 0 0 0 0 0 0 0 0 0 0 0 0 0 0 0 0 0 0 0 0 0 0 0 0 0 0
0 0 0 0 0 0 0 0 0 0 0 0 0 0 0 0 0 0 0 0 0 0 0 0 0 0 0 0 0 0 0 0 0 0 0 0 0 0 0 0 0 0 0
0 0 0 0 0 0 0 0 0 0 0 0 0 0 0 0 0 0 0 0 0 0 0 0 0 0 0 0 0 0 0 0 0 0 0 0 0 0 0 0 0 0 0
0 0 0 0 0 0 0 0 0 0 0 0 0 0 0 0 0 0 0 0 0 0 0 0 0 0 0 0 0 0 0 0 0 0 0 0 0 0 0 0 0 0 0
0 0 0 0 0 0 0 0 0 0 0 0 0 0 0 0 0 0 0 0 0 0 0 0 0 0 0 0 0 0 0 0 0 0 0 0 0 0 0 0 0 0 0
0 0 0 0 0 0 0 0 0 0 0 0 0 0 0 0 0 0 0 0 0 0 0 0 0 0 0 0 0 0 0 0 0 0 0 0 0 0 0 0 0 0 0
0 0 0 0 0 0 0 0 0 0 0 0 0 0 0 0 0 0 0 0 0 0 0 0 0 0 0 0 0 0 0 0 0 0 0 0 0 0 0 0 0 0 0
0 0 0 0 0 0 0 0 0 0 0 0 0 0 0 0 0 0 0 0 0 0 0 0 0 0 0 0 0 0 0 0 0 0 0 0 0 0 0 0 0 0 0
0 0 0 0 0 0 0 0 0 0 0 0 0 0 0 0 0 0 0 0 0 0 0 0 0 0 0 0 0 0 0 0 0 0 0 0 0 0 0 0 0 0 0
0 0 0 0 0 0 0 0 0 0 0 0 0 0 0 0 0 0 0 0 0 0 0 0 0 0 0 0 0 0 0 0 0 0 0 0 0 0 0 0 0 0 0
Wind_Speed
4 6 13 15 15 15 14 12 10 8 7 6 5 4 4 2 1 1 1 0 1 2 4 4 2 2 3 5 4 4 3 3 4 4 5 7 5 3 4 3 2 0 3
6 7 14 14 15 15 14 12 10 8 7 6 6 5 4 3 3 2 1 2 2 2 3 3 3 3 2 4 4 3 3 3 3 3 3 5 7 2 1 2 2 2 5
5 8 10 13 14 14 13 12 10 8 7 7 6 5 5 4 3 1 1 2 2 2 3 4 3 3 3 4 4 3 3 2 0 3 3 2 4 4 3 1 2 4 5
7 8 7 12 14 14 13 11 10 8 8 7 6 6 6 4 2 1 2 3 3 3 4 5 5 3 1 3 4 3 3 2 1 4 3 3 4 7 5 4 2 2 2
7 7 8 13 14 14 13 11 10 9 8 7 6 6 6 5 3 2 3 4 4 3 5 6 6 5 3 2 2 3 4 3 2 4 3 4 4 8 5 5 4 3 2
7 7 8 13 14 14 13 11 10 9 9 8 7 6 6 5 4 4 3 4 4 5 6 6 7 7 6 5 5 6 5 2 1 2 3 3 3 8 7 5 5 5 5
7 6 7 14 15 14 13 12 11 11 10 9 8 7 6 6 5 5 5 5 6 7 7 7 8 9 8 8 9 9 7 2 1 2 3 4 5 11 9 7 7 6 6
8 7 6 14 13 14 14 13 12 11 11 10 9 8 7 7 6 7 6 7 8 8 9 9 9 10 11 11 11 11 9 3 2 2 3 4 8 13 12 9 9 9 8
5 6 5 6 8 11 12 12 12 11 11 10 10 9 7 6 7 8 7 8 9 10 10 10 10 11 11 12 12 12 10 6 3 3 4 4 10 14 14 12 11 11 11
4 5 5 5 5 5 7 11 11 10 10 9 9 8 7 6 7 8 7 8 10 11 11 11 12 12 12 12 13 12 11 9 3 4 3 5 13 16 17 15 14 14 14
5 5 5 5 5 5 5 6 8 9 9 8 7 8 7 4 4 4 6 7 10 12 12 13 13 13 12 11 12 12 10 3 3 3 3 9 15 17 19 18 17 16 16
7 6 6 6 6 5 5 4 3 4 4 4 3 4 3 3 3 4 6 8 11 11 12 14 15 13 9 4 7 10 4 4 4 4 5 14 17 19 20 20 20 19 19
5 5 8 8 6 6 4 3 3 2 3 4 4 5 3 3 2 3 2 3 4 6 5 7 8 4 4 4 4 4 5 4 3 4 6 16 19 21 22 22 22 22 21
4 6 6 7 6 6 5 4 3 3 3 4 5 5 4 3 3 3 2 3 3 3 4 4 4 6 6 6 6 6 6 5 5 4 7 17 20 22 24 25 24 24 25
5 6 7 7 8 6 5 5 5 5 5 5 4 5 5 4 4 4 3 3 4 4 5 5 6 7 7 7 7 8 9 9 9 8 7 17 20 22 24 27 27 26 27
6 7 7 9 10 8 7 7 6 5 5 4 4 6 6 5 5 4 4 4 5 5 6 6 7 7 7 6 8 9 10 9 9 10 9 12 20 23 24 26 28 29 29
6 6 8 10 10 11 11 10 7 6 5 5 5 5 6 6 5 5 4 5 6 5 6 6 6 6 7 7 10 10 10 10 11 11 11 9 10 18 24 27 28 30 30
5 5 6 7 8 10 10 8 6 5 5 5 4 4 5 6 6 5 5 7 6 4 5 5 6 6 8 8 9 9 9 9 11 12 11 11 9 10 16 26 28 30 31
6 5 5 3 5 7 8 6 5 3 4 3 2 2 3 5 5 5 6 7 5 4 5 6 6 6 8 9 9 9 9 9 11 12 13 13 13 13 11 18 25 28 30
7 7 7 6 4 1 2 2 1 0 1 1 1 2 4 4 5 5 5 7 6 5 6 6 9 8 9 10 10 11 10 10 9 11 13 13 13 15 15 15 14 16 26
9 10 9 9 8 4 3 3 2 2 2 2 3 3 3 3 3 2 3 5 5 5 7 7 7 9 9 7 7 9 10 11 12 11 12 12 14 15 14 15 13 12 11
9 9 10 10 10 7 4 3 3 4 5 4 6 8 9 9 8 7 6 5 5 5 6 6 6 6 6 5 4 6 7 6 8 10 10 11 13 12 13 16 15 15 13
9 9 9 11 12 11 8 6 6 5 5 6 7 6 8 8 9 8 8 6 6 5 5 6 6 7 7 5 5 7 8 8 5 5 8 10 12 11 12 12 15 16 16
7 7 9 11 13 12 10 11 12 9 7 5 4 4 6 8 8 9 8 8 7 6 6 7 7 6 7 7 6 5 8 9 11 9 5 6 9 10 11 10 11 13 15
6 7 8 10 12 11 11 10 10 8 5 3 4 6 7 7 7 9 8 8 7 6 7 7 7 7 5 5 6 7 7 8 8 10 13 8 6 6 8 10 10 11 13
6 7 7 11 11 9 10 10 10 9 7 7 7 7 6 5 5 9 8 7 7 6 7 7 7 7 6 6 6 5 6 6 8 8 13 14 12 8 8 8 8 9 10
Wind_Direction
211 199 199 176 167 162 157 155 155 156 156 157 156 159 142 142 148 111 76 306 287 294 280 241 209 172 142 128 123 114 120 111 81 66 27 10 18 60 73 56 105 122 140
169 177 195 179 170 164 161 158 157 163 171 180 176 167 155 163 172 168 221 271 263 284 285 261 237 237 194 154 132 137 160 129 94 59 17 1 347 332 85 34 125 157 127
151 168 191 181 173 167 163 158 159 169 181 192 191 170 167 159 150 141 275 283 282 295 300 307 286 257 227 174 147 165 185 169 160 342 325 326 312 280 192 162 103 125 114
159 165 180 181 175 171 164 160 167 178 190 196 196 184 180 166 160 196 265 276 274 279 290 304 307 275 210 165 159 182 208 228 299 326 302 279 281 271 210 202 200 157 133
157 161 173 181 178 174 167 168 176 188 196 199 204 200 195 177 175 226 257 272 271 266 272 280 293 279 260 261 227 225 231 238 334 339 283 261 266 272 225 212 210 203 195
158 159 174 182 181 177 173 176 185 195 199 202 210 214 210 196 201 229 250 261 262 262 262 266 268 272 260 263 263 258 247 238 22 338 281 254 255 267 237 220 217 213 214
161 167 180 186 184 182 182 185 193 199 201 204 211 216 214 216 224 228 241 252 250 250 253 258 257 258 261 262 265 265 258 201 178 303 270 251 252 257 242 223 222 221 220
165 172 183 191 189 189 191 193 198 203 206 211 215 213 218 229 231 231 237 247 252 251 251 255 260 260 261 263 264 266 268 221 221 267 267 248 250 255 251 235 230 231 230
168 173 186 194 193 193 195 199 203 208 213 217 220 218 220 235 244 249 251 250 257 259 257 256 259 264 266 267 268 268 271 256 221 241 262 249 250 254 258 249 239 240 238
178 188 190 194 191 192 197 203 207 213 220 225 228 223 218 222 238 251 261 258 263 269 268 264 264 268 272 274 273 272 271 272 242 243 255 259 254 251 258 259 245 243 244
197 199 196 197 195 192 194 207 212 218 224 227 237 233 220 219 235 253 260 259 262 271 277 277 273 274 278 279 281 279 276 261 232 238 247 262 261 254 256 263 257 246 247
200 199 199 201 200 195 202 201 208 212 222 224 221 231 219 214 229 242 261 268 272 277 282 284 281 281 285 287 284 285 278 267 250 244 254 265 265 261 258 259 261 253 248
202 202 205 206 202 197 202 198 205 209 216 225 223 220 219 222 240 256 276 294 295 291 283 282 286 283 276 264 261 259 258 260 252 251 255 267 268 264 260 259 258 258 251
206 213 209 206 203 205 203 207 210 211 213 219 220 216 210 218 228 232 232 240 246 248 253 254 253 254 254 252 249 250 250 249 246 247 252 264 265 265 262 261 261 258 254
227 226 216 205 206 205 206 214 216 219 220 219 219 218 211 216 226 226 229 227 231 231 236 243 246 250 251 252 249 246 246 242 244 242 252 257 261 264 265 261 261 261 260
242 231 216 210 208 203 208 214 219 219 222 218 220 224 218 222 228 232 239 238 237 233 236 239 241 247 252 251 254 248 248 245 245 241 239 248 253 257 260 261 260 260 260
265 248 225 218 209 206 212 216 220 217 215 221 224 223 222 224 230 236 246 248 244 235 237 243 247 248 257 253 256 253 250 248 247 245 242 241 246 250 252 256 259 259 259
320 297 261 238 212 210 214 213 218 211 214 227 228 230 232 235 236 240 251 259 254 239 238 245 250 251 256 256 259 258 253 252 250 249 247 246 243 245 249 252 253 255 256
352 346 336 286 237 215 212 212 214 209 219 236 245 252 250 245 241 241 257 268 270 257 251 255 258 245 263 266 264 264 257 252 253 252 249 247 244 244 243 249 249 250 252
12 17 19 15 354 260 189 179 177 225 299 317 292 274 264 255 250 244 259 271 277 273 270 261 265 263 264 271 277 276 269 259 253 251 250 249 246 243 242 243 246 248 248
24 25 24 29 19 35 70 86 87 50 26 24 16 6 358 350 335 312 301 301 300 287 286 283 278 277 275 272 275 277 268 257 254 253 250 249 249 246 243 242 242 241 246
28 25 33 36 34 38 58 74 83 82 58 52 47 45 39 38 32 31 18 3 350 336 328 320 308 293 285 268 259 279 283 266 244 245 247 247 249 247 245 243 241 239 237
33 28 42 43 43 42 49 63 63 57 49 39 32 32 29 35 34 29 23 15 5 2 349 338 335 319 309 299 256 267 288 289 283 248 243 246 246 245 244 243 242 241 240
35 35 48 51 50 46 51 65 70 70 63 37 26 25 23 27 28 22 17 11 5 0 354 347 348 334 326 322 315 283 283 296 298 298 255 252 259 257 256 254 250 246 243
47 50 55 61 57 53 58 65 73 71 67 49 34 29 22 16 20 16 11 6 0 354 346 342 340 336 329 322 320 315 313 311 301 305 304 301 286 272 270 265 262 257 251
59 59 63 70 62 56 62 63 69 69 57 46 33 24 14 5 7 11 5 0 353 348 341 337 330 327 321 319 317 314 315 313 318 312 306 307 301 295 289 283 276 269 262